Wind_Speed
27 29 30 31 33 35 36 37 36 35 35 35 34 32 31 30 29 29 31 32 35 35 35 34 33 32 31 29 28 27 25 22 19 17 17 17 15 17 18 16 12 11 11 13 15 14 14 13 12 11 11 11 8 6 6 8 9 10 10 8 8 9 9 10 10 11 13 14 14 16 18 17 15 16 19 20 20 18 16 16 18 20 22 23 23 23 22
28 28 29 31 31 31 32 34 35 35 35 37 36 34 33 33 32 31 31 32 33 33 33 33 32 32 33 31 29 28 25 22 20 17 17 17 16 16 16 16 16 17 17 17 16 15 14 15 13 12 12 12 11 11 13 12 11 12 12 10 9 9 10 11 10 11 12 13 14 15 16 18 17 16 17 18 18 18 16 15 15 17 19 20 21 22 22
28 28 29 30 30 29 30 32 33 33 33 36 38 37 37 38 37 36 36 35 33 32 31 31 29 28 29 29 29 28 25 23 22 19 17 18 19 19 18 17 17 18 17 17 17 16 15 15 15 15 14 15 15 17 17 16 14 14 13 12 10 10 12 11 10 11 11 13 15 16 16 17 16 17 18 16 17 18 17 17 17 17 18 19 20 20 21
25 26 28 29 29 28 29 31 32 32 32 33 35 36 38 40 40 40 40 37 35 35 34 34 32 29 28 27 27 26 24 22 21 19 20 22 24 23 20 17 17 17 17 18 18 18 18 18 18 17 16 17 17 18 18 19 19 19 18 17 14 13 15 14 14 14 13 13 15 15 15 14 12 15 16 15 16 17 18 19 19 20 21 22 23 23 23
21 22 24 26 27 26 26 27 28 29 31 32 33 34 35 36 37 39 40 37 33 32 33 35 37 35 32 30 29 28 26 24 23 21 21 23 24 23 20 18 17 18 19 20 21 21 22 22 21 21 21 20 20 20 20 21 21 21 21 20 20 21 21 19 20 22 20 17 18 18 18 17 17 20 22 20 19 20 21 22 23 24 25 26 26 26 26
22 24 24 24 25 25 24 24 25 26 28 29 30 33 35 35 36 38 38 35 30 27 27 30 35 37 35 33 32 32 32 30 29 27 25 25 25 24 22 21 21 21 22 23 23 24 24 25 25 25 25 25 24 24 24 24 24 24 23 23 24 25 24 23 24 26 25 24 26 27 27 27 28 29 28 25 23 24 25 26 27 28 28 29 29 29 29
20 23 26 25 24 25 24 24 24 25 26 27 28 30 33 36 39 41 41 38 34 31 28 27 30 34 35 34 32 32 32 31 30 29 27 27 27 27 26 26 26 26 26 25 25 25 26 28 28 28 28 29 29 29 29 28 28 28 27 27 27 26 26 26 26 26 27 28 29 31 33 33 32 31 30 30 29 29 29 30 30 31 32 33 33 34 33
19 20 21 21 20 22 23 23 23 23 24 25 26 28 30 33 36 40 43 43 41 37 32 28 29 32 34 34 32 32 31 30 30 31 30 30 30 29 28 29 29 28 28 28 28 28 29 30 29 29 30 29 29 30 31 31 31 31 32 32 32 32 31 31 31 31 32 33 33 33 35 36 36 36 36 36 36 35 34 35 35 36 37 37 37 37 38
25 23 21 19 19 19 21 23 23 22 22 23 24 25 27 29 32 35 38 40 40 39 36 33 31 32 34 35 35 34 34 33 32 32 33 34 33 32 32 32 32 31 31 30 31 32 32 32 32 32 32 31 32 33 34 34 34 35 36 36 37 37 36 35 37 38 38 38 39 39 39 40 40 40 41 41 41 40 39 39 39 39 40 40 40 40 40
27 28 26 25 24 22 21 22 22 22 23 24 23 23 24 26 28 30 32 33 34 36 39 39 36 34 34 36 37 37 38 37 35 35 35 35 35 34 35 37 37 36 35 33 33 34 35 36 36 36 36 36 36 38 39 39 39 38 39 39 39 39 39 39 39 40 40 40 41 40 41 42 43 43 44 45 45 44 44 43 43 43 43 42 42 43 43
27 28 28 27 26 25 22 21 21 22 23 23 23 25 27 27 28 28 28 29 29 30 35 40 42 41 40 39 38 39 39 39 38 36 33 32 33 33 35 36 38 38 37 37 36 37 37 39 40 40 40 39 40 40 40 42 43 42 42 41 41 41 42 42 42 42 42 42 42 42 42 43 45 45 46 48 48 49 49 49 49 48 46 44 43 43 42
24 25 26 26 25 25 23 22 21 20 19 17 18 21 24 25 27 28 28 28 27 27 29 32 37 41 42 42 42 42 41 40 39 36 33 33 34 35 36 38 38 39 40 39 38 38 38 39 41 41 40 38 38 38 37 39 42 44 44 44 43 42 42 42 43 43 43 44 44 44 45 45 46 48 49 51 52 53 53 53 52 51 50 47 44 43 43
23 22 23 24 25 25 25 25 24 23 21 20 19 20 20 21 22 24 26 27 26 26 26 26 27 29 31 34 36 39 40 41 41 41 41 42 42 42 42 43 43 43 42 41 40 39 38 38 39 40 39 38 37 37 36 36 38 39 41 41 41 41 41 41 42 43 44 46 47 47 47 48 48 50 52 53 53 53 53 52 52 52 51 50 50 49 49
23 23 24 25 26 26 26 27 28 29 29 28 27 25 23 23 22 21 21 22 23 24 25 25 25 24 24 25 27 30 33 35 38 40 43 44 45 46 46 45 45 45 44 43 42 43 43 43 43 43 43 44 44 43 43 42 42 42 41 40 40 39 39 39 39 40 42 44 46 47 48 49 50 50 51 51 51 51 51 52 53 53 54 54 56 56 56
22 23 24 26 27 27 27 27 28 29 29 30 30 29 27 26 26 25 23 22 23 25 25 26 26 25 25 25 26 28 29 31 33 35 37 38 40 42 43 44 44 44 44 44 44 45 46 46 46 46 46 46 46 46 46 46 46 46 46 46 45 44 43 42 42 42 43 45 47 48 49 50 51 51 51 52 53 54 54 55 56 58 59 60 61 61 61
22 23 23 24 24 25 26 28 29 30 30 29 29 29 27 26 27 29 29 28 28 28 28 28 28 28 28 28 28 29 29 30 31 32 33 35 36 37 38 40 41 42 42 43 44 45 45 46 46 46 45 45 44 44 44 44 45 46 47 47 47 47 47 47 47 48 49 50 52 53 54 55 56 57 58 59 60 60 60 60 61 62 63 64 64 64 64
24 25 25 24 24 24 25 26 28 30 32 32 31 30 29 27 27 29 31 32 32 32 32 31 30 30 31 31 31 31 31 31 32 33 34 35 36 37 38 38 39 39 40 41 42 43 43 44 45 45 45 45 44 44 43 43 44 44 45 46 47 48 49 49 50 51 52 53 54 56 57 59 60 61 62 63 64 65 65 65 65 65 65 65 66 66 66
26 27 27 26 27 28 28 28 28 29 30 31 30 30 30 29 30 31 33 34 35 35 35 34 33 33 33 33 33 33 33 33 33 34 35 36 37 38 39 39 40 40 41 42 42 43 43 44 44 45 46 46 46 46 46 46 46 46 47 47 48 50 51 52 53 54 55 56 57 58 59 60 61 63 63 64 65 66 67 68 68 68 68 68 67 67 67
28 29 29 29 31 31 31 31 32 33 33 32 31 30 30 31 33 34 34 35 35 36 35 35 35 35 34 34 33 33 34 34 35 36 37 37 38 38 38 39 39 40 41 42 43 43 44 45 45 45 46 46 47 48 48 49 49 50 50 51 52 53 54 55 56 57 58 59 59 60 61 62 63 64 65 66 66 67 68 69 70 70 70 70 69 69 69
27 29 30 31 32 32 33 33 34 35 36 36 36 36 35 35 35 36 36 35 35 35 36 36 35 35 35 35 34 34 33 34 34 35 36 36 37 37 38 38 39 41 42 43 43 44 45 46 46 47 48 49 50 51 51 52 53 54 55 55 56 57 58 58 59 59 60 60 61 61 62 63 64 65 66 66 67 68 69 70 70 70 71 70 70 70 69
26 27 28 29 30 31 32 33 34 35 36 37 38 39 39 40 40 39 39 39 38 38 37 37 37 37 38 38 38 37 37 37 38 38 39 39 40 40 41 42 43 45 46 46 47 48 48 49 50 51 51 52 53 54 54 55 56 57 57 58 59 59 59 59 60 60 61 61 62 62 63 64 65 65 66 67 67 67 67 68 68 68 68 67 67 66 65
27 27 28 27 27 27 28 29 30 31 32 34 35 37 38 40 41 42 42 42 42 42 42 42 41 41 41 42 42 42 43 44 45 45 46 46 46 46 47 47 47 48 48 49 50 50 51 51 52 52 53 54 55 55 56 57 57 58 59 59 60 61 61 61 62 63 63 64 64 65 66 66 66 67 67 67 67 66 65 65 65 65 64 64 63 62 62
27 27 27 27 27 27 26 26 26 27 28 28 29 31 33 35 37 39 41 42 43 44 45 45 45 45 45 45 45 46 46 47 48 49 50 50 51 51 50 50 49 49 49 49 50 50 51 51 52 53 53 54 55 55 56 57 58 58 59 60 61 62 62 63 64 64 65 65 65 66 66 66 65 65 65 64 64 63 62 61 60 60 60 60 60 60 60
26 26 26 26 27 28 27 25 24 24 25 25 26 26 27 29 30 32 34 36 39 40 42 43 44 45 45 45 45 47 48 48 49 49 50 50 51 51 51 50 50 50 50 50 50 50 51 51 52 53 53 54 54 55 56 56 56 57 57 58 58 59 59 59 60 60 60 59 59 59 58 58 57 57 56 55 55 55 55 54 53 53 52 52 53 53 54
26 25 25 26 27 27 27 26 25 24 23 24 24 24 24 24 25 26 27 28 30 32 34 35 36 37 39 40 41 43 45 46 47 48 48 48 48 49 48 48 49 49 49 49 49 49 49 49 50 50 51 51 52 52 52 52 52 52 52 52 52 51 51 51 50 50 50 49 49 48 48 47 46 45 45 44 44 44 45 45 45 45 45 44 45 46 47
25 24 24 25 25 26 27 26 26 25 23 22 23 24 23 23 23 24 24 26 26 27 27 27 27 28 30 32 34 36 37 38 40 41 42 43 43 43 43 44 44 44 45 45 45 45 44 44 44 45 45 45 45 45 45 45 45 45 45 44 44 44 43 43 42 41 40 39 39 38 37 36 36 36 36 36 37 37 37 38 39 41 42 42 42 44 46
23 23 24 24 25 25 26 26 26 25 23 23 24 24 23 23 24 24 25 25 25 25 24 24 25 25 25 26 27 28 29 30 31 32 33 34 35 35 36 36 37 37 38 38 38 38 38 38 39 39 39 39 39 39 39 39 39 39 39 39 38 38 37 36 34 33 32 31 30 30 30 30 31 32 33 34 34 35 35 36 38 41 45 46 47 48 51
22 23 24 24 24 25 25 25 26 26 25 25 24 24 23 23 23 24 25 24 24 24 24 24 25 25 25 25 25 25 26 26 27 27 27 28 29 30 30 31 31 32 33 33 34 34 35 35 35 36 36 36 36 36 35 35 35 34 34 33 32 31 30 29 28 27 26 26 26 27 28 29 30 31 32 33 34 36 38 40 42 45 49 52 53 54 55
21 22 23 23 24 25 25 25 25 26 26 25 24 24 24 23 23 23 24 22 22 22 23 24 24 24 24 25 25 25 25 26 26 26 26 27 28 28 28 29 30 30 31 31 31 32 32 32 32 32 32 32 32 32 30 29 27 27 26 26 25 25 24 24 25 25 25 26 27 28 29 30 31 32 33 34 37 38 41 44 47 50 52 53 53 52 51
20 21 22 22 23 24 24 24 24 25 25 24 23 24 25 24 22 22 22 22 21 21 22 22 22 22 23 23 24 24 24 24 25 25 25 26 27 27 27 27 27 27 28 28 29 29 29 29 28 28 28 27 26 25 24 22 21 21 21 21 21 22 22 23 24 25 26 27 28 29 30 31 32 34 35 36 38 40 44 48 50 50 49 46 43 41 39
19 19 20 21 22 23 23 23 23 23 23 22 22 23 24 24 23 22 21 21 21 21 21 21 21 21 21 22 22 22 22 22 22 23 23 24 24 24 24 24 25 26 26 26 26 26 26 25 24 23 21 20 19 20 20 20 21 21 21 21 21 22 23 23 24 25 26 27 28 30 31 32 33 34 35 35 38 42 46 46 44 42 40 38 36 34 32
18 18 19 19 20 21 21 22 22 22 21 21 22 22 22 23 23 22 21 21 21 21 21 21 21 21 21 21 21 21 21 21 21 22 22 23 23 23 23 24 24 25 25 24 23 22 21 20 18 17 16 15 16 18 19 20 21 21 21 20 20 20 21 22 23 24 25 26 28 29 30 31 31 31 33 36 40 41 39 36 35 34 33 29 26 23 22
16 17 18 18 18 18 19 20 21 20 20 20 21 21 21 22 22 21 21 21 21 21 21 22 21 21 21 21 21 21 21 21 21 21 22 22 23 23 23 23 23 23 22 20 19 18 16 15 14 14 13 14 15 17 18 19 18 18 18 18 18 18 19 20 21 22 23 25 25 26 27 27 27 29 33 36 35 31 27 27 27 23 16 10 6 5 4
15 17 17 16 16 16 18 19 19 19 18 19 20 20 20 20 21 21 21 21 21 21 21 21 21 21 21 21 21 20 20 21 20 21 22 22 22 22 22 22 21 20 19 17 16 15 14 13 13 13 13 14 15 16 17 16 15 15 15 15 15 16 16 17 18 19 20 20 21 22 23 23 24 28 31 29 25 21 20 21 19 11 3 6 6 4 3
15 16 17 16 15 15 16 18 18 18 18 18 18 19 19 19 20 20 21 20 20 21 21 21 21 21 21 21 21 20 20 20 20 20 21 21 21 21 21 20 19 18 16 15 14 14 13 12 12 12 12 13 14 15 15 14 12 13 13 13 13 13 13 14 14 15 16 17 17 18 19 19 23 27 27 22 18 17 16 14 12 7 1 3 4 2 1
15 16 17 17 15 14 15 17 17 17 17 17 18 18 18 18 19 19 20 19 19 20 21 21 21 21 21 21 21 20 20 20 20 20 20 20 20 20 19 18 18 17 16 15 15 14 13 12 12 11 12 13 14 14 14 12 11 12 12 12 12 12 12 13 13 14 15 15 16 16 17 18 22 25 23 19 16 15 13 9 7 4 1 2 3 4 5
15 15 17 17 15 13 14 16 16 16 16 17 18 18 18 18 19 19 19 19 19 20 21 21 21 21 21 21 20 20 20 20 19 19 19 19 19 19 18 18 17 17 17 16 15 15 14 13 13 12 12 13 13 13 12 10 10 11 11 11 12 12 12 13 13 14 15 16 15 15 16 17 20 23 23 19 16 14 11 8 5 2 1 2 6 8 8
14 15 16 17 15 13 14 15 16 16 16 16 17 18 18 18 18 18 19 19 19 20 20 20 20 20 20 20 20 20 19 19 19 18 18 19 19 19 19 18 18 18 17 17 16 15 14 14 13 13 13 13 13 12 11 10 10 11 11 11 11 11 11 12 12 13 15 16 16 16 16 16 19 22 23 21 18 15 13 10 6 3 2 3 5 7 7
14 15 16 16 15 15 15 15 15 16 16 16 16 17 18 17 17 17 18 18 18 18 19 19 19 20 20 19 19 19 19 19 19 18 18 18 19 19 20 19 19 19 18 17 16 16 15 14 13 13 12 12 12 11 9 9 11 11 11 11 11 11 11 11 12 13 14 15 16 17 16 16 17 19 21 21 20 18 15 12 9 6 5 5 6 6 5
13 14 15 16 16 16 16 16 15 16 16 16 16 16 17 17 17 17 17 17 17 17 18 18 19 19 19 19 19 18 18 18 19 18 18 18 19 19 20 20 20 20 18 17 16 16 16 14 13 12 11 11 11 10 9 9 10 11 10 10 10 10 10 11 11 13 14 15 16 17 17 16 16 16 17 18 18 18 16 14 11 9 8 7 8 8 7
12 12 13 15 16 16 16 16 16 16 16 16 16 16 16 16 16 17 17 16 16 16 17 17 17 18 18 18 19 19 18 18 19 18 18 18 19 19 20 21 21 20 19 18 17 17 16 16 15 13 12 12 12 11 9 9 10 10 10 10 10 10 10 10 11 12 13 14 14 15 16 16 16 15 15 15 15 15 15 14 13 11 9 8 8 8 9
11 11 12 14 14 15 16 16 16 16 16 16 16 15 15 15 15 16 16 16 15 15 16 16 17 17 17 18 18 19 19 18 18 19 19 19 18 19 19 20 20 19 19 18 17 17 17 17 17 16 16 15 14 12 10 10 9 9 9 10 11 11 11 11 11 12 12 13 13 14 15 15 16 15 15 14 14 13 13 13 12 12 10 9 8 8 9
11 12 13 14 13 13 15 16 17 17 17 17 16 16 16 16 16 15 15 15 15 15 15 15 16 17 17 17 17 18 18 19 19 19 19 18 18 18 19 18 18 19 19 19 18 17 17 17 18 18 18 17 16 13 11 11 10 9 9 10 10 11 11 11 11 12 12 13 13 13 13 14 15 15 15 15 14 13 13 13 12 11 10 9 9 8 8
12 13 14 14 14 14 16 18 18 18 18 18 18 17 17 17 16 16 15 15 15 15 15 15 15 16 16 16 17 17 18 18 19 19 19 19 18 18 18 18 18 18 18 18 18 17 17 17 17 17 17 16 14 13 11 10 9 9 9 10 10 10 10 10 11 11 12 12 13 13 13 13 14 14 15 16 16 15 14 13 12 12 11 11 10 8 8
12 13 13 14 14 16 18 18 18 18 19 20 20 18 17 16 16 16 15 15 15 15 15 14 14 15 15 16 16 16 17 18 18 19 19 19 18 17 17 17 17 17 17 17 17 16 15 14 14 15 14 13 12 11 11 10 9 9 10 10 10 10 10 11 11 11 11 12 12 13 12 12 13 13 14 15 16 16 16 16 15 13 12 11 11 10 9
13 12 12 13 14 14 15 16 17 18 20 21 21 19 18 17 16 16 15 14 14 14 14 14 14 14 15 15 15 16 16 17 17 18 19 19 17 16 16 16 16 16 16 16 16 15 15 14 14 14 13 13 12 12 11 10 9 9 9 10 10 10 11 11 11 11 12 12 13 13 13 13 13 13 14 14 15 16 16 16 16 16 15 13 11 10 10
14 13 13 13 14 14 14 14 15 18 20 21 22 21 20 19 18 17 16 15 14 14 14 13 13 13 14 15 15 15 16 16 16 17 18 18 17 16 15 15 16 16 16 16 16 16 16 16 15 14 14 13 13 12 11 11 10 9 9 10 10 10 11 11 11 12 12 12 13 14 14 14 14 14 15 15 16 17 17 16 15 15 14 13 12 10 9
15 15 14 14 14 15 15 14 14 16 18 20 21 20 20 19 18 17 17 16 15 14 14 13 12 13 13 14 15 15 15 15 15 16 17 17 16 15 15 15 15 16 17 17 17 17 16 15 15 14 14 14 13 13 12 11 11 11 10 10 11 11 11 11 11 12 12 13 13 14 14 15 15 15 16 17 18 19 19 18 17 15 14 13 12 11 10
16 15 14 14 14 14 15 15 14 14 16 17 18 19 19 18 18 18 18 18 16 15 14 14 13 12 12 13 14 14 14 14 14 15 16 16 16 15 15 16 17 17 17 17 17 16 16 15 14 14 14 14 13 13 12 12 12 12 11 11 11 11 11 11 12 12 12 12 13 13 14 14 15 16 16 17 18 19 19 19 18 17 15 14 13 11 10
16 16 16 16 15 15 14 14 14 13 14 16 16 17 17 18 18 19 20 20 19 17 16 16 15 14 13 13 13 13 14 14 14 15 16 16 16 16 16 17 18 18 18 18 17 17 16 15 15 14 14 14 13 13 13 13 13 13 13 13 13 12 12 12 13 13 13 13 13 13 14 14 15 15 16 17 18 18 18 18 17 16 15 15 14 13 12
16 16 17 17 16 15 15 14 14 13 14 14 14 15 15 16 16 17 19 19 19 19 18 17 16 15 14 13 13 14 14 14 15 15 16 17 17 17 18 19 19 19 19 19 19 18 17 16 16 15 15 15 14 14 14 14 14 14 14 14 14 13 13 14 14 14 14 14 14 14 14 14 15 16 16 17 17 17 16 16 16 15 15 15 15 14 14
16 16 16 16 16 15 15 14 13 13 13 13 13 14 14 14 15 16 17 17 18 18 18 17 16 15 14 13 14 15 14 14 15 16 17 17 18 18 19 20 20 20 20 20 20 19 19 18 17 17 17 17 16 16 16 16 16 16 16 16 16 15 15 15 15 15 15 15 15 15 16 16 16 17 17 17 17 16 15 14 14 14 14 14 14 14 14
Wind_Direction
228 230 229 228 228 231 233 230 230 228 223 222 223 224 228 233 232 234 237 239 241 245 248 250 251 252 254 255 258 259 261 262 260 261 266 261 241 228 225 227 238 256 266 269 273 271 267 273 282 276 270 266 246 230 261 279 269 262 272 280 275 271 263 244 230 229 237 241 233 225 226 234 244 243 237 235 235 239 249 253 250 250 249 250 252 254 256
228 231 232 232 231 233 236 237 238 236 228 224 225 227 230 236 240 242 243 243 244 246 248 250 252 251 251 251 254 257 260 263 261 266 270 257 238 234 245 257 268 276 278 276 277 278 279 282 286 287 281 271 264 274 285 283 269 263 264 264 265 268 261 250 239 238 239 235 232 231 233 241 242 234 231 235 234 237 246 252 252 253 252 253 255 257 258
228 233 237 238 237 238 241 243 243 241 234 228 227 228 231 236 241 246 247 247 246 246 247 249 251 249 246 246 249 253 257 260 262 266 263 254 254 261 265 265 267 269 269 269 269 272 275 278 280 283 281 277 278 281 282 276 265 262 265 264 259 261 266 258 240 239 249 249 246 244 246 250 241 224 222 228 230 234 241 244 247 249 249 251 253 254 257
227 231 238 243 243 241 242 244 245 244 241 238 235 233 233 234 237 243 248 250 250 249 249 249 250 250 249 249 251 253 255 257 260 264 262 260 265 270 268 261 254 252 256 260 263 264 268 271 274 277 277 276 275 273 271 270 269 269 272 271 265 265 268 257 240 246 260 255 247 245 244 244 236 228 234 237 235 239 243 244 247 249 250 253 253 255 258
229 230 234 239 241 241 242 245 247 247 246 244 243 241 238 235 234 239 246 249 250 251 251 248 247 248 251 253 253 254 254 254 255 257 258 261 264 265 262 255 247 243 244 248 252 255 257 260 263 267 269 270 270 267 264 263 265 267 268 269 270 273 274 266 258 263 266 257 253 255 250 247 249 254 258 257 251 249 249 248 250 251 253 255 256 258 260
237 238 238 239 242 243 244 246 249 249 248 247 244 242 240 238 236 239 244 246 244 246 251 250 247 246 248 252 255 255 255 255 256 256 256 259 261 258 254 250 248 246 245 246 250 253 254 255 256 258 260 261 262 264 263 260 260 263 264 264 267 270 273 273 272 273 272 267 267 268 264 260 259 258 260 260 257 254 254 254 255 255 257 258 258 258 259
236 240 242 242 246 248 246 246 247 247 247 246 245 242 241 240 240 241 244 244 243 247 254 254 248 244 245 247 250 253 254 255 256 257 257 257 257 255 253 252 252 252 252 253 255 257 259 258 257 259 262 262 263 264 266 265 265 267 268 268 268 269 271 273 274 275 274 272 271 270 267 265 262 260 259 260 260 259 259 259 258 257 258 258 258 258 259
234 237 238 237 243 248 248 246 246 246 247 247 246 245 242 241 241 242 244 244 245 247 249 246 242 242 242 242 243 247 249 249 250 252 252 251 251 251 251 251 251 251 251 252 254 256 260 262 263 265 267 267 267 268 269 269 270 271 271 271 271 270 269 269 269 268 268 266 266 266 266 265 264 262 261 263 264 264 263 261 259 258 258 258 259 260 260
242 243 240 238 245 251 250 248 247 247 248 248 247 246 245 241 240 242 245 246 246 244 241 240 241 242 242 242 243 244 246 247 248 249 248 248 249 249 247 247 248 249 250 252 255 257 260 262 265 266 267 267 267 268 269 269 270 270 269 268 267 267 266 267 268 269 270 269 267 266 266 266 266 265 264 264 264 263 263 262 261 260 261 261 262 263 264
248 250 249 248 251 252 250 249 248 246 247 249 250 251 250 246 243 244 247 249 249 244 240 239 242 244 244 246 246 246 248 249 250 250 251 250 250 250 249 248 248 250 252 253 255 257 259 262 263 264 265 266 266 267 269 268 267 266 266 264 264 264 265 267 269 271 273 272 270 269 268 267 266 265 265 265 265 265 266 266 265 265 266 267 266 266 265
250 251 251 249 249 249 248 248 247 246 248 251 254 255 255 252 251 251 250 250 251 248 243 240 240 242 245 247 247 248 249 250 251 253 255 255 254 252 250 248 247 249 250 251 253 255 257 259 260 261 263 264 263 265 267 266 264 263 262 261 261 263 265 267 269 270 271 271 270 269 268 267 265 265 265 266 268 269 269 270 269 269 270 270 268 265 265
247 248 249 248 247 245 244 245 243 241 240 240 243 251 254 253 253 254 254 254 252 251 249 246 244 245 246 247 248 249 251 252 253 254 254 253 253 252 252 252 252 252 253 253 255 256 257 258 258 259 261 262 262 262 264 263 260 258 258 257 258 261 264 266 268 269 270 270 268 268 267 266 265 265 267 268 269 270 270 271 272 272 272 272 270 266 267
244 247 249 249 248 246 245 246 244 242 240 236 237 245 252 253 253 253 254 254 254 252 252 250 248 249 250 250 250 251 252 253 254 254 254 254 255 255 256 257 258 259 258 258 257 256 256 256 256 255 255 256 258 261 262 263 261 260 259 259 260 261 262 264 266 267 267 268 268 267 265 263 262 263 265 267 268 269 270 270 271 271 272 273 273 272 272
251 251 251 250 251 251 250 250 249 249 250 250 250 252 254 254 255 255 252 251 250 250 251 249 248 249 250 251 250 248 247 248 248 249 251 253 255 257 258 260 261 262 262 262 260 258 256 256 257 257 256 258 260 262 262 263 263 263 262 262 262 262 261 260 260 261 262 263 263 262 259 257 256 257 259 261 262 264 265 265 267 268 270 273 275 276 277
260 258 256 255 255 255 254 252 251 252 253 254 253 254 255 254 254 254 253 250 248 249 251 251 249 249 250 250 250 249 248 248 248 249 251 253 254 256 257 259 260 262 262 263 263 262 261 262 262 263 263 263 264 264 263 264 264 263 263 263 263 263 262 260 258 257 257 257 257 256 255 254 253 255 257 260 263 265 266 267 268 270 272 275 277 278 278
260 260 258 257 257 257 253 251 250 251 254 256 256 255 254 253 252 253 254 254 253 253 255 255 253 251 250 250 250 251 252 253 253 254 254 255 256 256 256 257 259 260 261 262 262 263 263 264 265 266 266 266 265 265 265 265 265 265 265 266 266 267 267 267 265 264 263 262 262 262 261 260 260 261 264 267 269 271 272 272 272 273 275 276 277 277 278
258 258 257 256 257 257 255 253 252 253 256 259 260 260 258 254 250 252 255 257 257 256 256 256 255 254 253 252 252 253 254 255 256 257 257 257 257 257 257 257 258 259 259 260 260 261 262 262 263 263 264 264 265 265 266 266 266 267 267 268 269 270 270 271 272 271 271 270 270 270 270 270 270 270 271 272 273 275 276 276 276 276 277 277 277 277 277
259 259 257 255 255 256 256 256 255 256 258 260 260 262 261 258 253 252 254 257 259 260 260 259 258 257 256 255 254 254 255 257 258 258 258 257 256 256 257 257 258 258 259 259 260 260 261 261 261 262 262 263 263 265 266 267 268 269 270 271 272 273 274 275 275 276 276 275 275 274 274 274 274 274 275 275 276 277 277 278 278 279 279 279 279 279 279
263 262 260 258 256 256 257 258 258 258 259 259 259 259 259 259 258 257 257 256 257 260 262 263 262 261 260 259 259 258 258 260 261 260 258 256 255 256 256 257 258 259 259 260 261 261 262 262 263 263 264 264 266 267 269 270 271 273 274 275 275 276 277 277 278 277 277 277 276 276 276 276 276 276 276 276 276 277 277 278 279 279 280 280 280 280 280
268 267 266 264 262 261 260 260 260 260 260 260 259 258 258 258 259 259 258 257 257 257 259 260 260 259 258 258 259 258 258 258 258 257 256 254 254 257 260 260 261 262 263 263 263 264 265 265 266 267 267 268 270 271 272 273 275 276 276 277 278 279 279 279 279 278 278 277 277 277 277 277 277 277 277 277 277 277 277 277 278 278 278 278 278 278 278
271 270 269 268 267 267 265 264 262 261 261 261 260 260 259 259 259 259 258 258 258 257 257 257 257 257 256 255 255 255 254 254 254 254 255 256 257 260 265 267 268 268 268 268 268 269 269 270 270 271 271 272 273 274 275 276 276 277 278 279 279 280 280 280 280 279 279 279 279 279 278 278 278 278 278 278 278 278 278 278 277 277 277 277 277 276 276
273 272 270 270 269 269 268 267 266 264 263 262 262 261 260 260 259 259 259 259 258 258 258 258 258 258 258 257 256 255 256 257 258 260 261 262 262 264 266 269 270 270 270 270 270 271 271 272 272 273 273 274 275 276 277 277 278 278 279 280 280 280 280 280 280 280 280 280 280 280 280 279 279 280 280 279 279 279 278 278 278 277 277 276 275 274 273
276 275 275 273 272 270 268 267 267 267 267 266 264 263 262 261 260 259 259 259 259 259 258 258 258 259 260 260 260 259 259 260 262 263 264 264 265 266 267 269 270 270 270 271 271 271 271 272 272 273 273 274 274 275 275 276 276 276 276 276 277 277 277 278 278 278 278 279 279 279 279 278 278 278 279 278 278 277 276 276 275 275 274 273 272 271 270
276 275 276 275 273 272 270 268 267 267 268 269 268 266 266 266 265 264 262 261 261 260 259 259 259 259 260 260 261 260 261 261 263 264 265 266 266 267 268 269 270 270 271 271 271 271 272 272 272 272 273 273 274 274 275 275 275 275 275 275 275 276 276 276 277 277 277 277 277 277 277 277 277 277 276 276 276 276 275 273 272 272 273 273 272 271 270
275 275 275 273 273 273 272 271 269 267 267 267 268 267 267 268 268 268 267 266 265 264 263 263 262 262 261 261 262 261 261 262 263 264 266 267 267 268 269 269 270 271 272 272 273 273 273 273 274 274 275 275 276 276 276 276 277 277 277 277 277 277 277 277 277 277 277 277 277 277 277 277 276 276 276 275 275 276 277 277 275 274 273 272 272 273 272
277 277 275 273 273 272 272 272 271 269 269 268 268 267 266 266 266 266 266 266 266 267 267 265 263 262 262 263 264 264 264 264 264 265 266 267 268 269 269 269 270 271 272 273 274 275 275 275 276 277 277 278 279 279 279 279 279 279 279 280 280 280 280 280 280 279 279 278 278 277 277 277 278 278 278 278 278 277 277 277 278 278 276 275 274 274 274
275 275 274 273 272 272 272 272 272 270 268 266 265 266 267 267 266 265 265 266 267 268 268 267 265 264 263 264 265 266 266 267 266 267 267 268 269 270 270 271 272 273 274 275 276 276 277 278 279 280 281 281 282 282 283 283 283 283 284 284 284 283 283 282 281 280 279 279 278 277 278 280 281 282 283 282 282 280 278 277 278 278 279 278 277 276 275
276 275 274 273 272 271 270 270 270 269 268 266 266 267 267 267 267 266 265 266 268 268 268 268 268 267 267 267 267 267 267 268 269 269 269 269 270 270 271 272 273 274 275 276 277 277 278 279 280 281 283 284 284 285 286 287 287 287 286 285 284 284 283 282 281 279 279 278 278 279 282 284 286 287 287 285 284 284 284 283 281 280 279 279 279 277 275
278 277 276 275 274 272 270 269 268 267 268 269 270 269 267 266 266 267 267 267 267 267 267 267 267 267 267 267 267 268 268 268 269 269 269 269 269 270 270 271 271 273 274 275 276 277 279 280 282 283 285 286 287 288 288 288 287 285 284 283 282 282 282 281 280 280 280 280 281 283 286 288 290 290 289 289 289 288 287 286 285 284 283 282 281 279 275
276 275 275 274 274 273 272 271 270 268 268 268 269 269 268 267 267 268 269 270 269 268 266 266 266 266 266 266 266 266 267 267 267 268 268 268 269 269 270 270 272 273 274 275 277 279 280 282 283 285 286 288 290 292 292 291 290 288 288 287 286 286 285 284 283 283 283 283 285 287 289 291 293 293 293 293 292 291 291 291 290 289 288 286 283 279 274
275 274 272 271 271 271 272 272 271 270 270 270 269 269 270 270 270 270 270 270 270 269 268 267 267 266 266 266 266 267 267 267 267 268 269 269 270 271 272 273 274 275 275 277 278 279 280 282 283 284 286 290 293 296 298 298 297 296 295 293 292 290 288 286 285 285 285 287 288 290 291 293 294 295 295 295 295 296 296 295 294 293 292 289 284 276 268
277 274 272 272 272 272 272 272 271 271 271 270 269 269 270 271 271 270 270 269 269 269 268 268 267 267 267 267 268 268 269 270 270 271 271 272 273 274 274 274 274 274 274 274 275 276 277 277 278 279 283 287 291 294 296 296 296 295 294 292 291 289 287 287 288 288 290 291 292 292 294 295 296 297 299 301 302 302 301 301 302 302 301 296 286 273 262
278 276 274 274 274 274 272 271 271 271 271 270 270 270 270 270 271 271 270 269 268 268 268 268 268 268 268 269 269 269 270 270 271 272 272 273 273 273 273 271 270 269 269 268 268 268 269 270 271 272 277 284 288 292 294 294 294 295 296 296 296 295 294 295 294 294 295 295 294 295 297 298 300 305 309 310 310 309 308 311 313 313 314 318 306 266 249
281 279 278 277 276 275 273 272 271 269 268 268 269 270 270 270 271 270 269 268 268 267 266 266 267 267 267 267 268 269 269 270 271 271 271 272 271 270 269 266 264 263 260 258 257 258 260 263 266 270 276 283 289 292 293 294 297 303 306 306 306 304 303 302 301 300 300 300 299 302 304 305 312 319 321 321 321 318 317 321 325 323 353 60 63 69 74
284 281 279 278 277 275 273 273 271 269 267 266 267 269 270 270 269 269 268 267 266 266 266 266 266 266 266 266 266 266 267 268 268 268 268 268 267 266 263 259 256 253 250 247 248 251 256 261 265 271 279 285 289 290 291 293 300 307 309 309 309 309 309 311 312 312 313 312 312 314 314 317 327 334 335 333 332 327 320 327 339 341 6 92 82 50 357
289 283 280 279 278 275 273 273 273 273 272 271 269 268 268 268 268 268 268 268 267 266 266 266 265 265 265 265 265 265 264 265 266 266 265 264 262 260 256 250 246 243 241 241 245 249 254 260 265 271 279 286 287 287 287 291 300 306 306 307 309 311 316 320 322 324 327 329 328 327 327 331 341 349 349 345 342 338 330 331 344 353 347 185 214 253 272
292 287 282 280 279 275 272 273 274 274 274 274 273 272 270 268 268 268 268 269 269 268 267 267 266 266 265 264 263 264 263 263 264 263 261 259 256 252 247 242 239 238 238 241 245 250 256 262 267 271 276 281 282 282 284 291 298 301 302 304 309 314 319 325 328 331 337 340 340 338 337 342 352 0 3 359 353 350 349 343 336 332 304 244 235 242 254
291 288 284 284 284 281 276 275 276 275 274 274 274 274 273 271 270 270 269 269 269 268 268 268 267 266 265 264 263 263 263 263 263 261 257 254 250 246 241 236 234 236 239 243 246 251 256 262 267 269 271 273 274 275 280 290 297 299 300 306 313 317 322 327 332 338 343 347 348 347 345 348 356 4 10 11 8 6 5 0 353 338 299 261 246 247 257
288 286 283 283 283 281 277 276 277 277 277 276 275 276 276 274 273 271 270 268 268 268 269 269 268 267 265 263 262 262 262 262 261 258 254 249 245 241 237 234 233 236 241 245 248 250 252 256 262 267 268 268 268 270 278 290 296 298 303 310 315 319 323 329 336 342 345 350 354 354 351 352 356 2 8 14 16 16 15 10 1 343 313 284 275 281 291
289 286 282 281 283 281 280 280 280 280 280 280 279 278 280 280 278 276 273 270 269 268 268 269 269 268 266 264 262 261 261 261 260 256 251 246 242 239 237 235 234 237 241 245 248 248 248 250 256 265 270 270 267 268 277 288 293 297 304 311 313 316 322 329 337 342 346 350 356 359 358 356 356 357 1 7 12 16 18 17 10 357 338 314 301 304 313
285 281 278 279 282 284 285 284 282 281 282 282 281 281 282 282 282 281 279 276 273 271 270 270 269 267 266 265 264 263 261 259 257 255 249 244 241 239 238 236 236 238 241 243 246 247 247 248 253 263 273 276 271 268 274 283 287 291 300 306 308 311 320 329 335 340 343 346 353 359 3 3 2 359 357 357 360 4 9 14 15 12 2 345 328 320 318
282 277 274 273 278 284 289 289 286 286 287 287 286 286 286 284 283 282 281 279 278 276 275 274 271 268 264 262 262 263 262 259 255 252 248 243 241 240 240 239 239 239 239 241 244 246 248 249 254 262 271 274 270 266 270 276 280 286 295 300 303 308 316 325 331 334 337 341 346 353 0 5 8 7 3 358 352 349 349 354 3 10 11 4 356 349 344
278 277 274 273 275 281 286 288 289 292 293 292 291 291 291 290 288 285 282 279 278 276 275 274 273 270 266 262 260 260 261 259 256 251 247 242 241 241 242 241 240 239 239 239 243 246 249 254 259 263 265 264 260 259 263 269 274 282 291 295 299 306 313 319 326 330 333 337 342 348 354 360 5 9 11 10 5 356 346 338 336 341 348 352 354 359 4
280 279 277 273 268 266 269 276 284 290 292 291 292 293 292 290 290 288 285 282 279 277 274 272 271 269 267 264 261 259 258 257 255 252 247 242 240 240 241 240 239 238 238 239 243 248 253 258 259 255 250 247 247 250 256 262 269 278 285 290 295 303 309 312 317 323 329 334 338 342 348 353 358 2 6 10 11 10 5 355 341 331 325 326 329 337 349
289 284 281 277 271 266 266 269 271 275 280 285 289 291 292 291 290 288 286 282 280 277 274 272 270 269 267 265 262 259 257 255 253 250 246 243 240 239 240 239 238 236 236 237 241 245 248 249 246 240 235 236 241 247 251 256 263 272 279 285 291 299 304 307 310 314 319 324 329 333 338 344 349 353 358 2 5 6 7 6 3 356 343 328 319 317 320
303 295 292 290 287 284 279 271 263 262 269 276 283 287 291 293 292 290 287 283 280 278 276 273 270 268 266 264 262 260 258 255 252 248 245 242 240 239 238 237 235 233 234 234 235 234 233 233 232 232 232 235 239 243 247 252 258 267 277 283 287 292 298 304 308 312 315 319 323 327 330 335 340 344 349 353 357 360 1 2 3 4 2 353 338 322 310
314 309 306 303 300 298 296 285 272 264 265 271 277 283 287 289 290 291 289 286 281 279 277 276 273 270 266 263 260 259 257 254 250 245 241 240 238 235 234 234 233 233 232 230 227 225 225 227 229 230 232 235 238 241 245 250 256 264 274 280 284 289 296 302 307 312 317 320 323 325 329 333 336 340 343 346 349 352 355 356 356 358 0 0 356 345 327
315 314 311 306 303 301 302 298 288 275 269 271 276 280 281 281 282 284 284 284 282 281 280 279 276 272 268 262 258 255 253 250 247 243 240 238 235 231 230 231 231 229 226 224 222 221 222 224 227 230 233 237 240 243 247 252 258 265 272 278 282 287 294 301 307 313 317 321 324 326 328 331 334 337 341 344 346 346 347 348 350 351 353 355 356 357 355
310 311 312 309 306 304 304 304 298 284 273 272 275 277 277 275 272 271 274 278 282 284 285 283 278 272 267 262 256 251 247 244 243 242 240 236 231 228 228 229 228 225 222 220 219 220 222 224 226 230 235 239 241 245 250 255 260 264 270 276 280 285 290 297 303 308 312 316 320 322 323 325 329 333 336 339 342 343 344 344 344 346 348 350 351 352 355
303 306 309 310 309 307 307 307 302 291 280 276 276 276 275 273 269 267 269 273 277 280 283 282 277 270 265 261 256 251 246 241 240 240 238 234 231 229 229 228 226 224 223 223 223 223 225 227 229 232 237 240 242 245 250 255 259 263 267 271 275 279 285 291 297 301 306 309 312 313 315 317 322 326 330 333 335 336 338 340 341 343 344 347 348 350 351
299 301 303 306 308 310 311 309 306 300 294 289 284 280 277 276 272 269 268 269 272 275 277 276 271 265 262 260 259 256 251 243 238 237 236 234 233 232 232 231 229 228 229 230 229 229 229 231 234 237 240 242 245 247 251 254 258 261 265 268 271 275 281 288 293 297 302 305 305 306 308 310 313 317 321 324 326 327 329 332 335 338 340 342 343 345 346
298 301 303 304 306 311 312 311 309 307 305 300 294 287 282 279 277 274 272 271 272 275 275 270 262 255 252 253 255 257 255 249 242 238 236 235 235 235 234 235 235 235 235 235 235 234 234 235 237 240 242 244 246 249 253 256 258 260 263 266 269 273 278 283 289 293 298 302 304 304 305 307 310 311 313 315 316 317 319 322 325 328 331 335 336 337 338
Height
5666 5668 5670 5673 5674 5676 5677 5678 5679 5681 5684 5685 5686 5687 5688 5689 5690 5691 5693 5696 5697 5697 5698 5700 5701 5703 5703 5704 5705 5706 5706 5707 5709 5711 5712 5712 5713 5712 5713 5714 5715 5716 5719 5720 5720 5722 5723 5723 5725 5726 5726 5726 5727 5727 5728 5729 5730 5730 5731 5733 5734 5735 5735 5735 5736 5737 5738 5737 5738 5738 5739 5741 5742 5744 5745 5746 5748 5749 5749 5750 5750 5751 5751 5753 5754 5755 5756
5662 5664 5666 5668 5671 5673 5674 5675 5676 5677 5680 5682 5683 5684 5685 5686 5688 5689 5691 5693 5694 5695 5696 5697 5698 5700 5700 5702 5703 5703 5703 5704 5706 5708 5710 5711 5711 5712 5712 5712 5713 5715 5717 5718 5719 5720 5721 5722 5722 5723 5724 5725 5725 5726 5727 5728 5729 5729 5729 5731 5732 5733 5733 5731 5732 5734 5735 5736 5736 5737 5738 5739 5740 5741 5742 5744 5745 5746 5747 5747 5748 5748 5749 5750 5751 5752 5753
5660 5661 5662 5664 5667 5670 5671 5671 5671 5673 5676 5678 5679 5681 5682 5684 5685 5686 5687 5690 5692 5694 5695 5695 5696 5697 5698 5699 5700 5701 5702 5703 5704 5705 5707 5708 5709 5710 5711 5711 5712 5713 5714 5715 5716 5717 5717 5718 5719 5720 5721 5722 5723 5725 5725 5726 5727 5727 5728 5729 5730 5732 5732 5731 5731 5732 5733 5734 5735 5736 5736 5737 5737 5738 5739 5741 5742 5743 5743 5744 5745 5746 5746 5747 5748 5749 5749
5656 5658 5658 5660 5663 5665 5667 5667 5668 5670 5673 5674 5676 5678 5678 5680 5683 5683 5684 5687 5689 5691 5692 5693 5693 5694 5695 5697 5698 5698 5700 5701 5702 5703 5705 5705 5706 5707 5708 5709 5710 5712 5712 5713 5713 5714 5714 5714 5715 5716 5717 5718 5720 5721 5722 5723 5723 5724 5725 5726 5727 5729 5730 5731 5731 5731 5732 5733 5733 5733 5734 5734 5734 5735 5735 5737 5738 5739 5740 5741 5742 5742 5743 5744 5744 5745 5746
5653 5654 5655 5657 5658 5661 5663 5664 5665 5667 5669 5671 5673 5674 5674 5676 5679 5680 5681 5683 5685 5687 5688 5689 5690 5691 5692 5694 5695 5696 5697 5698 5700 5701 5702 5703 5703 5704 5705 5705 5707 5708 5709 5710 5710 5710 5711 5712 5712 5713 5713 5715 5716 5717 5718 5719 5719 5720 5722 5723 5724 5725 5728 5730 5731 5730 5731 5732 5732 5732 5732 5732 5733 5733 5732 5732 5734 5735 5736 5737 5738 5738 5739 5739 5740 5741 5741
5651 5652 5653 5654 5655 5657 5659 5660 5661 5663 5664 5666 5668 5670 5670 5672 5674 5675 5676 5678 5681 5682 5683 5685 5686 5687 5689 5691 5692 5693 5694 5695 5697 5699 5700 5701 5701 5701 5702 5702 5703 5704 5705 5705 5706 5707 5708 5709 5709 5709 5710 5712 5713 5713 5714 5715 5717 5718 5719 5720 5721 5723 5724 5727 5728 5728 5729 5730 5731 5731 5731 5730 5730 5730 5728 5729 5730 5731 5732 5733 5733 5733 5734 5734 5735 5735 5736
5648 5649 5650 5651 5653 5654 5655 5657 5658 5659 5660 5661 5663 5665 5667 5669 5671 5672 5672 5673 5676 5678 5680 5681 5683 5684 5686 5688 5690 5690 5691 5693 5694 5696 5698 5699 5699 5699 5699 5699 5700 5701 5701 5702 5703 5703 5704 5705 5706 5706 5707 5709 5710 5711 5711 5713 5714 5715 5716 5717 5718 5718 5719 5721 5722 5722 5724 5725 5725 5726 5726 5725 5726 5726 5725 5725 5725 5726 5727 5727 5727 5728 5728 5728 5729 5730 5731
5645 5646 5647 5648 5650 5651 5652 5654 5655 5656 5657 5658 5659 5661 5663 5665 5667 5667 5667 5669 5672 5674 5676 5677 5678 5680 5682 5684 5686 5686 5687 5689 5690 5692 5695 5696 5696 5696 5697 5697 5697 5698 5698 5698 5699 5700 5700 5701 5702 5703 5704 5705 5706 5707 5708 5710 5711 5711 5712 5712 5713 5714 5714 5715 5715 5715 5716 5717 5718 5719 5719 5720 5720 5721 5720 5720 5720 5720 5721 5721 5722 5722 5722 5723 5724 5724 5725
5642 5643 5644 5646 5647 5648 5650 5651 5652 5653 5654 5654 5655 5657 5659 5661 5662 5662 5662 5665 5667 5670 5672 5673 5674 5676 5678 5679 5681 5682 5683 5684 5685 5687 5689 5691 5691 5692 5693 5693 5694 5694 5695 5695 5696 5697 5697 5697 5698 5699 5699 5700 5701 5702 5704 5706 5707 5707 5707 5708 5708 5709 5709 5709 5710 5710 5711 5711 5712 5713 5713 5713 5714 5715 5715 5715 5715 5715 5715 5716 5716 5716 5717 5718 5718 5719 5719
5638 5639 5641 5642 5644 5645 5647 5648 5649 5650 5650 5650 5652 5653 5654 5656 5658 5658 5659 5661 5662 5664 5667 5668 5670 5672 5673 5674 5676 5677 5678 5679 5680 5681 5683 5685 5686 5687 5688 5689 5689 5690 5691 5692 5693 5694 5694 5694 5694 5694 5695 5696 5696 5697 5699 5701 5702 5702 5702 5702 5703 5704 5704 5705 5706 5707 5707 5707 5707 5707 5707 5707 5707 5708 5708 5708 5708 5709 5709 5710 5711 5711 5711 5711 5711 5712 5712
5635 5635 5637 5638 5640 5642 5643 5645 5646 5646 5647 5648 5650 5650 5650 5652 5654 5655 5656 5657 5658 5659 5661 5663 5665 5667 5668 5670 5671 5672 5673 5674 5676 5677 5678 5680 5681 5682 5682 5684 5685 5686 5687 5688 5689 5690 5690 5690 5690 5690 5691 5692 5692 5693 5695 5696 5696 5696 5696 5697 5698 5698 5699 5699 5701 5701 5702 5702 5701 5701 5701 5701 5700 5701 5701 5701 5702 5702 5702 5702 5703 5703 5704 5704 5704 5704 5705
5631 5632 5633 5635 5637 5638 5640 5641 5643 5643 5644 5645 5646 5645 5646 5649 5651 5652 5653 5653 5655 5656 5657 5659 5661 5663 5664 5665 5667 5668 5669 5670 5672 5673 5674 5675 5675 5676 5676 5678 5679 5680 5682 5683 5684 5685 5686 5686 5686 5686 5687 5687 5688 5689 5690 5691 5690 5690 5691 5692 5693 5694 5693 5694 5695 5695 5695 5695 5695 5695 5695 5694 5694 5694 5694 5694 5694 5693 5693 5693 5693 5694 5694 5695 5696 5697 5697
5628 5629 5630 5631 5633 5635 5637 5638 5639 5640 5641 5641 5642 5643 5644 5646 5648 5649 5650 5650 5652 5653 5654 5655 5657 5659 5659 5660 5662 5663 5664 5665 5667 5668 5667 5668 5669 5669 5670 5671 5673 5674 5675 5677 5678 5679 5680 5681 5681 5682 5683 5683 5683 5684 5686 5686 5686 5686 5686 5687 5688 5688 5689 5689 5689 5689 5689 5689 5689 5689 5689 5689 5689 5688 5687 5687 5686 5686 5685 5685 5685 5685 5685 5686 5687 5688 5689
5624 5626 5627 5628 5630 5631 5633 5634 5635 5636 5636 5637 5639 5641 5643 5644 5645 5646 5647 5648 5649 5649 5650 5652 5654 5655 5655 5656 5657 5657 5658 5659 5661 5661 5661 5662 5663 5664 5665 5666 5667 5668 5669 5671 5672 5673 5673 5674 5675 5676 5677 5677 5677 5679 5680 5681 5681 5681 5682 5682 5683 5683 5683 5683 5683 5684 5684 5684 5684 5684 5684 5684 5683 5683 5681 5681 5680 5679 5679 5678 5678 5678 5678 5678 5679 5679 5680
5621 5623 5624 5625 5626 5628 5629 5630 5631 5631 5631 5633 5636 5638 5639 5641 5642 5643 5643 5644 5645 5645 5646 5647 5649 5651 5651 5651 5651 5652 5653 5654 5655 5656 5657 5657 5658 5659 5660 5661 5662 5662 5664 5665 5666 5666 5667 5668 5669 5669 5670 5671 5671 5673 5674 5674 5674 5675 5675 5676 5677 5677 5677 5677 5677 5678 5678 5678 5678 5679 5678 5678 5678 5677 5676 5675 5674 5673 5672 5672 5672 5671 5671 5670 5671 5671 5671
5619 5619 5620 5622 5624 5624 5625 5626 5626 5627 5627 5629 5631 5633 5636 5637 5638 5638 5638 5639 5641 5641 5642 5643 5645 5646 5646 5647 5647 5648 5649 5650 5651 5652 5653 5653 5653 5653 5655 5656 5657 5657 5659 5660 5659 5660 5661 5662 5662 5662 5663 5664 5665 5666 5667 5667 5668 5668 5669 5669 5670 5670 5670 5670 5670 5671 5671 5671 5671 5671 5671 5671 5671 5670 5669 5668 5667 5666 5665 5665 5664 5664 5663 5662 5662 5662 5663
5616 5616 5617 5620 5621 5621 5621 5622 5623 5623 5624 5625 5626 5628 5631 5633 5633 5634 5634 5634 5635 5637 5638 5639 5640 5641 5642 5642 5643 5644 5645 5646 5647 5647 5648 5649 5649 5649 5650 5652 5652 5653 5654 5654 5654 5655 5656 5656 5656 5657 5658 5658 5659 5660 5660 5661 5661 5662 5662 5662 5663 5662 5662 5662 5663 5663 5663 5663 5663 5663 5663 5663 5662 5661 5660 5659 5658 5657 5656 5655 5655 5654 5654 5653 5652 5652 5653
5613 5613 5614 5617 5617 5617 5618 5619 5620 5620 5620 5621 5622 5623 5625 5626 5628 5629 5630 5630 5630 5632 5633 5634 5635 5636 5637 5638 5638 5639 5640 5641 5642 5642 5643 5644 5644 5644 5645 5647 5647 5648 5648 5647 5648 5650 5650 5650 5651 5651 5652 5653 5653 5653 5654 5654 5655 5655 5655 5655 5655 5655 5654 5655 5655 5654 5654 5654 5654 5654 5654 5653 5653 5652 5651 5650 5649 5648 5646 5644 5643 5643 5643 5642 5642 5641 5641
5609 5609 5610 5612 5613 5613 5615 5616 5616 5616 5617 5618 5619 5620 5620 5621 5622 5624 5625 5626 5627 5627 5628 5629 5630 5630 5631 5632 5633 5634 5635 5636 5636 5637 5638 5639 5638 5638 5639 5641 5641 5641 5641 5641 5643 5643 5643 5643 5644 5645 5646 5646 5646 5647 5647 5647 5648 5648 5648 5648 5647 5647 5647 5647 5646 5646 5645 5645 5645 5644 5644 5643 5643 5642 5641 5640 5639 5638 5636 5634 5633 5633 5632 5632 5631 5631 5630
5604 5604 5605 5606 5608 5610 5611 5612 5611 5612 5612 5613 5615 5616 5616 5616 5617 5618 5619 5620 5622 5623 5623 5624 5625 5626 5626 5627 5628 5629 5630 5630 5630 5631 5632 5633 5633 5633 5633 5635 5635 5635 5635 5636 5636 5637 5637 5637 5638 5638 5639 5639 5639 5640 5640 5641 5641 5641 5640 5640 5639 5638 5638 5637 5637 5636 5636 5635 5635 5634 5634 5633 5632 5631 5630 5629 5629 5628 5627 5625 5623 5622 5622 5622 5621 5620 5620
5600 5600 5600 5601 5603 5604 5605 5606 5607 5607 5608 5609 5610 5611 5611 5611 5612 5612 5613 5615 5616 5617 5618 5619 5620 5621 5621 5623 5624 5625 5625 5624 5624 5625 5626 5627 5628 5628 5629 5629 5629 5628 5629 5629 5630 5630 5631 5631 5632 5632 5632 5632 5632 5633 5633 5633 5633 5633 5632 5631 5630 5629 5628 5628 5627 5626 5626 5625 5625 5624 5624 5623 5621 5620 5619 5618 5618 5617 5615 5613 5612 5611 5612 5612 5611 5609 5609
5596 5596 5596 5597 5599 5599 5600 5601 5601 5602 5603 5604 5605 5606 5606 5605 5605 5606 5607 5609 5610 5611 5613 5614 5615 5615 5616 5617 5619 5620 5619 5618 5618 5619 5619 5620 5622 5623 5624 5624 5622 5621 5622 5623 5623 5624 5624 5624 5625 5625 5624 5624 5625 5625 5625 5625 5625 5624 5623 5622 5621 5620 5619 5618 5618 5617 5616 5615 5615 5614 5613 5612 5611 5610 5608 5607 5607 5606 5605 5602 5600 5600 5601 5601 5600 5599 5599
5592 5592 5592 5593 5594 5594 5595 5596 5597 5597 5598 5598 5599 5600 5599 5599 5599 5600 5601 5602 5603 5604 5606 5607 5609 5610 5610 5610 5612 5612 5612 5612 5612 5611 5612 5613 5615 5616 5617 5617 5616 5615 5615 5616 5616 5617 5617 5618 5618 5617 5617 5617 5618 5618 5618 5618 5617 5617 5616 5615 5614 5612 5611 5611 5610 5609 5608 5606 5606 5605 5604 5603 5603 5601 5599 5597 5596 5596 5596 5594 5592 5590 5590 5590 5590 5589 5589
5587 5588 5589 5589 5589 5589 5590 5592 5593 5594 5594 5594 5594 5594 5594 5593 5593 5594 5595 5596 5596 5597 5598 5601 5602 5603 5603 5603 5603 5604 5606 5606 5605 5604 5605 5607 5607 5608 5610 5609 5608 5608 5608 5609 5609 5610 5610 5610 5610 5610 5610 5610 5611 5611 5610 5610 5609 5609 5608 5607 5606 5605 5604 5603 5601 5600 5599 5598 5597 5596 5595 5594 5593 5593 5591 5589 5587 5585 5585 5585 5584 5583 5581 5580 5579 5579 5579
5583 5585 5585 5585 5585 5585 5586 5587 5588 5589 5590 5590 5590 5590 5590 5589 5589 5590 5590 5590 5590 5591 5593 5595 5596 5596 5596 5596 5596 5597 5598 5599 5598 5598 5599 5599 5600 5602 5603 5601 5600 5601 5601 5601 5601 5602 5602 5602 5602 5602 5602 5602 5602 5602 5602 5601 5601 5600 5599 5598 5597 5596 5595 5594 5593 5592 5591 5590 5589 5588 5587 5586 5585 5584 5583 5583 5581 5579 5577 5576 5575 5575 5574 5573 5571 5571 5571
5580 5581 5581 5581 5581 5581 5582 5583 5584 5584 5586 5586 5586 5585 5586 5586 5586 5586 5586 5586 5586 5587 5588 5589 5590 5590 5590 5590 5590 5591 5591 5592 5592 5593 5593 5593 5594 5595 5595 5594 5594 5594 5594 5594 5595 5595 5594 5595 5595 5595 5594 5594 5594 5594 5593 5593 5592 5591 5590 5590 5589 5588 5587 5586 5585 5584 5583 5582 5581 5580 5580 5579 5578 5578 5577 5576 5575 5574 5572 5570 5568 5567 5566 5565 5565 5564 5563
5577 5577 5577 5577 5578 5578 5578 5579 5579 5580 5581 5582 5581 5581 5582 5582 5582 5582 5582 5582 5583 5583 5584 5584 5585 5585 5586 5586 5586 5586 5586 5586 5587 5587 5588 5588 5588 5589 5589 5589 5589 5589 5589 5589 5589 5589 5588 5589 5588 5588 5588 5588 5588 5587 5586 5585 5585 5584 5583 5582 5581 5581 5580 5579 5578 5577 5577 5576 5575 5575 5574 5574 5573 5572 5571 5570 5569 5568 5567 5566 5564 5561 5558 5557 5557 5556 5554
5574 5574 5573 5574 5574 5575 5575 5575 5575 5575 5576 5577 5577 5578 5578 5578 5578 5578 5578 5579 5579 5579 5580 5580 5580 5581 5581 5581 5581 5582 5582 5582 5582 5583 5583 5584 5584 5584 5585 5585 5584 5584 5584 5584 5584 5584 5584 5584 5583 5583 5583 5582 5582 5581 5580 5579 5578 5578 5577 5576 5576 5575 5574 5574 5573 5572 5572 5571 5571 5570 5570 5569 5568 5567 5566 5564 5563 5562 5560 5558 5557 5554 5551 5548 5547 5545 5544
5570 5570 5570 5570 5570 5570 5571 5571 5571 5571 5572 5573 5573 5573 5574 5574 5574 5574 5574 5575 5576 5576 5576 5576 5576 5577 5577 5577 5577 5578 5578 5578 5578 5579 5579 5579 5579 5580 5581 5581 5580 5580 5580 5580 5580 5580 5579 5579 5579 5579 5578 5578 5577 5576 5575 5575 5574 5573 5573 5572 5571 5571 5570 5570 5569 5568 5568 5567 5567 5566 5565 5565 5563 5562 5561 5559 5557 5555 5553 5550 5548 5545 5542 5539 5536 5534 5532
5567 5567 5567 5567 5567 5566 5567 5567 5567 5568 5568 5569 5569 5569 5569 5570 5571 5571 5571 5572 5572 5572 5572 5572 5572 5573 5573 5573 5574 5574 5574 5575 5575 5575 5575 5575 5575 5576 5576 5576 5576 5576 5576 5576 5576 5576 5575 5575 5575 5575 5574 5574 5573 5572 5571 5571 5570 5570 5569 5568 5568 5567 5567 5566 5565 5565 5564 5563 5563 5562 5561 5560 5559 5557 5555 5553 5551 5548 5545 5541 5538 5534 5531 5528 5525 5523 5522
5563 5564 5564 5563 5563 5563 5563 5563 5564 5564 5565 5565 5565 5565 5565 5566 5567 5567 5568 5568 5568 5568 5569 5569 5569 5569 5569 5570 5570 5570 5570 5571 5571 5571 5571 5571 5571 5572 5572 5572 5572 5572 5572 5572 5572 5572 5572 5572 5571 5571 5571 5571 5570 5569 5569 5568 5567 5567 5566 5565 5565 5564 5564 5563 5562 5561 5561 5560 5559 5558 5557 5556 5554 5552 5550 5548 5545 5541 5536 5532 5528 5524 5521 5518 5516 5514 5513
5560 5560 5560 5560 5560 5560 5560 5560 5560 5561 5561 5561 5561 5562 5562 5562 5563 5563 5564 5564 5565 5565 5565 5565 5565 5566 5566 5566 5566 5567 5567 5567 5567 5567 5567 5568 5568 5568 5568 5568 5568 5568 5568 5568 5568 5568 5568 5568 5568 5568 5569 5568 5568 5567 5566 5566 5565 5564 5563 5563 5562 5562 5561 5560 5559 5558 5558 5557 5556 5555 5553 5552 5550 5548 5545 5542 5538 5533 5528 5524 5521 5517 5514 5511 5509 5507 5508
5556 5556 5556 5556 5557 5557 5557 5557 5557 5558 5558 5558 5558 5558 5559 5559 5559 5560 5560 5561 5561 5561 5561 5561 5562 5562 5562 5563 5563 5563 5563 5563 5564 5564 5564 5564 5564 5564 5565 5565 5565 5565 5565 5565 5565 5566 5566 5566 5566 5567 5567 5567 5566 5566 5565 5564 5563 5562 5561 5560 5560 5559 5558 5557 5556 5555 5555 5553 5552 5551 5550 5548 5546 5543 5540 5535 5531 5527 5523 5520 5517 5514 5511 5508 5506 5506 5506
5553 5553 5553 5553 5554 5554 5554 5554 5554 5555 5555 5555 5555 5555 5556 5556 5556 5556 5557 5557 5557 5557 5557 5558 5558 5558 5559 5559 5559 5560 5560 5560 5560 5561 5561 5561 5561 5561 5561 5561 5561 5562 5562 5563 5563 5563 5564 5564 5565 5565 5565 5565 5564 5564 5563 5562 5561 5560 5559 5559 5557 5557 5556 5555 5554 5553 5552 5551 5549 5548 5546 5544 5542 5539 5535 5530 5526 5523 5521 5519 5516 5513 5511 5510 5509 5508 5509
5550 5550 5549 5550 5550 5551 5551 5551 5551 5551 5552 5552 5552 5552 5553 5553 5553 5553 5553 5554 5554 5554 5554 5554 5555 5555 5555 5555 5556 5556 5556 5557 5557 5557 5557 5557 5557 5558 5558 5558 5559 5559 5560 5560 5561 5562 5562 5563 5563 5563 5563 5563 5562 5562 5561 5560 5560 5559 5558 5557 5556 5555 5554 5553 5552 5551 5549 5548 5546 5545 5543 5541 5539 5535 5531 5527 5524 5522 5520 5518 5516 5514 5513 5512 5511 5511 5511
5547 5547 5546 5546 5547 5548 5548 5548 5548 5548 5549 5549 5549 5549 5550 5550 5550 5550 5550 5550 5550 5550 5550 5551 5551 5551 5552 5552 5552 5553 5553 5553 5553 5554 5554 5554 5554 5555 5555 5556 5556 5557 5558 5558 5559 5560 5560 5561 5561 5561 5561 5561 5561 5560 5559 5559 5558 5558 5557 5556 5555 5554 5553 5551 5550 5549 5547 5546 5544 5542 5541 5539 5537 5533 5528 5525 5523 5521 5519 5517 5516 5515 5514 5513 5513 5512 5512
5544 5544 5543 5543 5544 5545 5545 5545 5545 5546 5546 5546 5546 5546 5546 5547 5547 5547 5547 5547 5547 5547 5547 5547 5548 5548 5548 5549 5549 5549 5550 5550 5550 5550 5551 5551 5551 5552 5552 5553 5554 5555 5555 5556 5557 5558 5559 5559 5559 5559 5559 5559 5559 5558 5558 5557 5557 5556 5556 5555 5554 5552 5551 5550 5549 5547 5546 5544 5542 5540 5539 5537 5535 5531 5528 5524 5522 5521 5519 5517 5516 5515 5514 5514 5514 5513 5513
5542 5542 5541 5541 5541 5542 5542 5542 5542 5543 5543 5543 5543 5543 5543 5543 5543 5544 5544 5544 5544 5544 5544 5544 5544 5545 5545 5545 5546 5546 5546 5547 5547 5547 5548 5548 5548 5549 5550 5551 5552 5552 5553 5554 5555 5556 5557 5557 5557 5557 5557 5557 5557 5556 5556 5555 5555 5555 5554 5553 5552 5551 5550 5548 5547 5546 5544 5543 5541 5539 5537 5535 5533 5531 5527 5525 5522 5520 5519 5517 5516 5515 5514 5514 5514 5514 5514
5539 5539 5539 5538 5539 5539 5539 5539 5540 5540 5540 5540 5540 5540 5540 5540 5540 5540 5541 5541 5541 5541 5541 5541 5541 5541 5542 5542 5542 5542 5543 5543 5544 5544 5545 5545 5546 5546 5547 5548 5549 5550 5551 5552 5553 5554 5554 5555 5555 5555 5555 5555 5555 5555 5554 5554 5553 5553 5552 5551 5551 5550 5549 5547 5546 5544 5543 5541 5539 5538 5536 5534 5532 5530 5528 5525 5523 5521 5519 5518 5517 5516 5515 5515 5515 5514 5514
5536 5536 5536 5536 5536 5536 5536 5537 5537 5537 5537 5537 5537 5537 5537 5537 5537 5537 5537 5538 5538 5538 5538 5538 5538 5538 5538 5539 5539 5539 5540 5540 5540 5541 5542 5542 5543 5544 5545 5546 5547 5548 5549 5550 5551 5551 5552 5553 5553 5553 5553 5553 5553 5553 5553 5552 5552 5551 5551 5550 5549 5548 5547 5546 5545 5543 5542 5540 5539 5537 5535 5533 5531 5530 5528 5526 5524 5522 5520 5519 5518 5517 5516 5515 5515 5514 5514
5534 5534 5534 5534 5534 5534 5533 5533 5534 5534 5534 5534 5534 5534 5535 5534 5534 5534 5534 5534 5535 5535 5535 5535 5535 5535 5535 5535 5536 5536 5537 5537 5537 5538 5539 5539 5540 5541 5542 5543 5544 5545 5547 5547 5548 5549 5550 5550 5551 5551 5551 5551 5551 5551 5551 5551 5550 5550 5549 5549 5548 5547 5546 5545 5544 5543 5541 5540 5538 5536 5534 5532 5531 5529 5528 5526 5525 5523 5521 5520 5519 5518 5516 5515 5514 5514 5513
5531 5531 5531 5531 5532 5532 5531 5531 5531 5531 5531 5531 5531 5531 5531 5532 5532 5531 5531 5531 5532 5532 5532 5532 5532 5532 5533 5533 5533 5533 5534 5534 5535 5535 5536 5537 5538 5538 5539 5540 5542 5543 5544 5545 5546 5546 5547 5548 5548 5549 5549 5549 5549 5549 5549 5549 5549 5548 5548 5547 5546 5546 5545 5544 5543 5542 5540 5539 5538 5536 5534 5532 5531 5529 5527 5526 5525 5523 5522 5520 5519 5518 5517 5516 5515 5514 5513
5528 5528 5528 5529 5529 5529 5529 5528 5528 5528 5528 5528 5528 5528 5528 5528 5528 5528 5528 5528 5528 5529 5529 5529 5529 5529 5530 5530 5531 5531 5531 5531 5532 5533 5533 5534 5535 5536 5537 5538 5539 5540 5541 5542 5543 5544 5544 5545 5546 5546 5546 5547 5547 5547 5547 5547 5547 5546 5546 5545 5545 5544 5543 5542 5541 5540 5539 5538 5537 5535 5534 5532 5531 5529 5527 5526 5525 5523 5522 5520 5519 5518 5517 5516 5515 5514 5513
5526 5526 5526 5526 5526 5526 5526 5526 5525 5525 5525 5525 5525 5525 5526 5525 5525 5525 5525 5525 5525 5525 5526 5526 5526 5526 5527 5527 5528 5528 5528 5529 5529 5530 5531 5532 5532 5533 5534 5535 5536 5537 5538 5539 5540 5541 5541 5542 5542 5543 5543 5544 5544 5545 5545 5545 5545 5545 5544 5544 5543 5542 5542 5541 5540 5539 5538 5537 5536 5535 5534 5532 5531 5529 5528 5526 5524 5523 5522 5520 5519 5518 5517 5516 5515 5514 5513
5524 5524 5524 5523 5523 5523 5523 5524 5524 5523 5523 5523 5523 5523 5523 5523 5523 5523 5523 5523 5522 5522 5523 5523 5523 5524 5524 5524 5525 5525 5526 5526 5527 5527 5528 5529 5530 5530 5531 5532 5533 5534 5535 5536 5537 5538 5538 5539 5540 5540 5541 5542 5542 5542 5543 5543 5543 5543 5543 5542 5542 5541 5540 5539 5539 5538 5537 5536 5535 5534 5533 5532 5531 5529 5528 5526 5525 5523 5522 5520 5519 5517 5516 5515 5515 5514 5513
5522 5522 5522 5521 5521 5521 5521 5521 5521 5521 5520 5520 5520 5520 5520 5520 5520 5520 5520 5520 5520 5520 5520 5520 5520 5521 5521 5521 5522 5522 5523 5523 5524 5525 5525 5526 5527 5528 5529 5530 5530 5531 5532 5533 5534 5535 5536 5537 5537 5538 5539 5539 5540 5540 5540 5541 5541 5541 5540 5540 5540 5539 5539 5538 5537 5536 5535 5535 5534 5533 5532 5531 5530 5529 5528 5526 5525 5523 5522 5520 5519 5517 5516 5514 5513 5513 5512
5521 5520 5520 5519 5518 5518 5518 5518 5518 5518 5518 5518 5518 5518 5518 5517 5517 5517 5517 5517 5517 5517 5517 5517 5518 5518 5518 5518 5519 5519 5520 5521 5521 5522 5523 5523 5524 5525 5526 5527 5528 5529 5530 5531 5532 5532 5533 5534 5535 5536 5536 5537 5537 5538 5538 5538 5538 5538 5538 5538 5538 5537 5537 5536 5536 5535 5534 5533 5532 5531 5530 5529 5528 5527 5526 5525 5524 5523 5522 5520 5519 5518 5516 5515 5513 5512 5511
5519 5518 5518 5517 5517 5516 5516 5515 5515 5515 5515 5515 5515 5515 5515 5515 5515 5515 5514 5514 5515 5515 5515 5515 5515 5515 5515 5515 5516 5516 5517 5518 5519 5520 5520 5521 5522 5523 5524 5525 5526 5526 5527 5528 5529 5530 5531 5532 5532 5533 5534 5534 5535 5535 5535 5536 5536 5536 5536 5536 5536 5535 5535 5534 5534 5533 5532 5531 5531 5530 5529 5528 5527 5526 5525 5524 5523 5522 5521 5520 5519 5518 5516 5515 5514 5513 5511
5517 5516 5516 5515 5515 5514 5514 5513 5513 5513 5513 5513 5513 5512 5513 5513 5513 5513 5512 5512 5512 5513 5513 5513 5513 5513 5513 5513 5513 5514 5515 5516 5517 5517 5518 5519 5520 5521 5521 5522 5523 5524 5525 5526 5527 5527 5528 5529 5530 5531 5531 5532 5532 5533 5533 5533 5533 5534 5534 5534 5534 5533 5533 5533 5532 5531 5531 5530 5529 5528 5527 5527 5526 5525 5524 5523 5522 5521 5520 5519 5518 5517 5516 5515 5514 5513 5512
5515 5514 5514 5513 5513 5512 5512 5511 5511 5510 5510 5510 5510 5510 5510 5510 5510 5510 5510 5510 5510 5510 5510 5510 5510 5510 5510 5511 5511 5511 5512 5513 5514 5515 5516 5517 5518 5518 5519 5520 5521 5522 5522 5523 5524 5525 5526 5527 5528 5528 5529 5529 5530 5530 5531 5531 5531 5531 5531 5532 5532 5531 5531 5530 5530 5529 5529 5528 5527 5527 5526 5525 5524 5523 5523 5522 5521 5520 5519 5518 5517 5516 5515 5514 5513 5512 5511
5513 5512 5511 5511 5510 5510 5509 5509 5508 5508 5508 5507 5507 5507 5507 5507 5507 5507 5507 5507 5507 5507 5508 5508 5508 5508 5508 5508 5509 5509 5510 5510 5511 5512 5513 5514 5515 5516 5517 5518 5518 5519 5520 5521 5522 5523 5524 5524 5525 5526 5526 5527 5527 5528 5528 5528 5529 5529 5529 5529 5529 5529 5529 5528 5528 5527 5527 5526 5526 5525 5524 5524 5523 5522 5521 5520 5520 5519 5518 5517 5516 5515 5514 5513 5512 5511 5510
5511 5510 5509 5509 5508 5508 5507 5507 5506 5506 5505 5505 5505 5505 5505 5505 5505 5505 5505 5505 5505 5505 5505 5505 5506 5506 5506 5506 5507 5507 5508 5508 5509 5510 5511 5512 5513 5513 5515 5515 5516 5517 5518 5519 5519 5520 5521 5522 5522 5523 5524 5524 5525 5525 5526 5526 5526 5526 5527 5527 5527 5527 5526 5526 5526 5525 5525 5524 5523 5523 5522 5522 5521 5520 5520 5519 5518 5517 5516 5516 5515 5514 5513 5512 5511 5511 5510